Tracking 25710 objects as of 5-Jul-2022
HD Live streaming from Space Station
objects crossing your sky now

FENGYUN 1C DEB

Track FENGYUN 1C DEB now!
10-day predictions


NORAD ID: 30684
Int'l Code: 1999-025AQS
Perigee: 853.2 km
Apogee: 1,208.4 km
Inclination: 99.6 °
Period: 105.6 minutes
Semi major axis: 7401 km
RCS: 0.036 m2 (small)
Launch date: May 10, 1999
Source: People's Republic of China (PRC)
Launch site: Taiyaun Space Center, China (TSC)

Note: This is SATELLITE DEBRIS
aabbcc
Your satellite tracking list
Your tracking list is empty




NASA's NSSDC Master Catalog

Two Line Element Set (TLE):
1 30684U 99025AQS 22185.57320786  .00001074  00000-0  11718-2 0  9994
2 30684  99.6199 227.1829 0239947 247.1957 110.3678 13.63307186765783
Source of the keplerian elements: AFSPC